Location: ?????
(42.2640°N, 43.4211°E)
Time: 14:18:51
(UTC+00:00)

Cosmos 1607 - Pass Details

Date: 07 August 2020
Orbit: 911 x 991 km, 65.0° (Epoch: 19 September)

Event Time Altitude Azimuth Distance (km) Brightness Sun altitude
Rises 00:35:04 0° 320° (NW) 3,697 7.0 -15.1°
Reaches altitude 10° 00:37:48 10° 313° (NW) 2,751 6.3 -14.7°
Maximum altitude 00:43:41 39° 247° (WSW) 1,454 4.4 -13.8°
Drops below altitude 10° 00:49:34 10° 181° (S) 2,741 6.0 -13.0°
Sets 00:52:18 0° 174° (S) 3,681 6.7 -12.6°
